Terminal Aerodrome Forecast
Issued by NWS

Home | Current Version | Previous Version | Graphics & Text | Print | Product List | Glossary On
Versions: 1 2 3 4 5 6 7 8 9 10 11 12 13 14 15 16 17 18 19 20 21 22 23 24 25 26
000
FTUS43 KABR 200310 AAD
TAFATY
TAF AMD
KATY 200310Z 2003/2024 20015G25KT 4SM TSRA OVC045CB
      TEMPO 2003/2005 2SM TSGR OVC025CB
     FM200500 26013KT P6SM VCTS OVC050CB
     FM200600 30011KT P6SM BKN070
     FM201000 27009KT P6SM SCT130
     FM202300 20008KT P6SM SKC=

USA.gov is the U.S. government's official web portal to all federal, state and local government web resources and services.